Terminal Aerodrome Forecast
Issued by NWS

Home | Current Version | Previous Version | Graphics & Text | Print | Product List | Glossary On
Versions: 1 2 3 4 5 6 7 8 9 10 11 12
000
FTUS43 KBIS 190500
TAFJMS
TAF
KJMS 190521Z 1906/2006 19009KT P6SM SCT150 SCT200
     FM190900 22009KT P6SM SCT150
     FM191200 27010KT P6SM SKC
     FM191500 31012KT P6SM SKC
     FM191800 32015G22KT P6SM SKC
     FM200100 31006KT P6SM SKC=

USA.gov is the U.S. government's official web portal to all federal, state and local government web resources and services.